Location: Niedergestelen
(46.3129°N, 7.7822°E)
Time: 18:21:08
(UTC+00:00)

Cosmos 1933 - Visible Passes

Search period start: 16 April 2021 00:00
Search period end: 26 April 2021 00:00
Orbit: 547 x 562 km, 82.5° (Epoch: 15 April)

Date Brightness Start Highest point End Pass type
(mag) Time Alt. Az. Time Alt. Az. Time Alt. Az.
16 Apr 6.3 00:41:40 10° NW 00:41:40 10° NW 00:41:44 10° NW visible
16 Apr 5.9 23:02:57 19° NNE 23:02:57 19° NNE 23:04:11 10° NNE visible
17 Apr 5.8 23:00:01 21° NNE 23:00:01 21° NNE 23:01:24 10° N visible
18 Apr 5.7 22:57:04 22° N 22:57:04 22° N 22:58:37 10° N visible
19 Apr 5.6 22:54:07 24° N 22:54:07 24° N 22:55:49 10° N visible
20 Apr 5.5 22:51:09 26° N 22:51:09 26° N 22:53:00 10° N visible
21 Apr 5.3 22:48:10 27° N 22:48:10 27° N 22:50:12 10° N visible
22 Apr 6.0 21:09:22 10° NE 21:09:22 10° NE 21:09:27 10° NE visible
22 Apr 5.2 22:45:10 29° NNW 22:45:10 29° NNW 22:47:22 10° N visible
23 Apr 5.8 21:06:21 12° NE 21:06:21 12° NE 21:06:57 10° NE visible
23 Apr 5.1 22:42:09 30° NNW 22:42:09 30° NNW 22:44:33 10° N visible
24 Apr 5.6 21:03:19 14° ENE 21:03:19 14° ENE 21:04:22 10° NE visible
24 Apr 5.1 22:39:07 31° NNW 22:39:07 31° NNW 22:41:42 10° N visible
25 Apr 5.4 21:00:16 16° ENE 21:00:16 16° ENE 21:01:46 10° NE visible
25 Apr 5.0 22:36:04 31° NW 22:36:04 31° NW 22:38:51 10° N visible
